SCP
0 0 0 0 0 0 0 0 0 0 0 0 0 0 0 0 1 1 1 1 1 1 1 1 1 1 1 1 1 1 0 0 0 0 0 0 0 0 0 0 1 1 1
0 0 0 0 0 0 0 0 0 0 0 0 0 0 0 0 0 0 0 0 1 1 1 1 1 1 1 1 1 1 1 1 0 1 0 0 0 0 0 0 1 1 1
0 0 0 0 0 0 0 0 0 0 0 0 0 0 0 0 0 0 0 0 0 0 1 1 1 1 1 1 1 1 1 1 1 0 1 0 0 0 0 0 0 0 1
0 0 0 0 0 0 0 0 0 0 0 0 0 0 0 0 0 0 0 0 0 0 0 0 0 1 1 1 2 2 1 1 1 1 0 1 0 0 0 0 0 0 0
0 0 0 0 0 0 0 0 0 0 0 0 0 0 0 0 0 0 0 0 0 0 0 0 0 0 0 1 1 1 1 1 1 1 1 0 0 0 0 0 0 1 1
0 0 0 0 0 0 0 0 0 0 0 0 0 0 0 0 0 0 0 0 0 0 0 0 0 0 0 0 0 1 1 1 1 1 1 1 1 0 1 1 0 0 0
0 0 0 0 0 0 0 0 0 0 0 0 0 0 0 0 0 0 0 0 0 0 0 0 0 0 0 0 0 0 1 1 1 1 1 1 1 1 0 0 0 0 0
-0 0 0 0 0 0 0 0 0 0 0 0 0 0 0 0 0 0 0 0 0 0 0 0 -0 -0 -0 0 0 0 0 1 0 1 1 1 1 0 0 0 0 0 0
0 0 0 0 0 0 0 0 0 0 0 0 0 0 0 0 0 0 0 0 0 0 0 0 0 -0 0 0 0 0 0 0 0 0 1 1 1 0 0 0 0 0 0
0 0 0 0 0 0 0 0 0 0 0 0 0 0 0 0 0 0 0 0 0 0 0 0 0 0 0 0 0 0 0 0 0 0 0 1 0 0 0 0 0 0 0
0 0 0 0 0 0 0 0 0 0 0 0 0 0 0 0 0 0 0 0 0 0 0 0 0 0 0 0 0 0 0 0 0 0 0 0 0 0 0 0 0 0 0
0 0 0 0 0 0 0 0 0 0 0 0 0 0 0 0 0 0 0 0 0 0 0 0 0 0 0 0 0 0 0 0 0 0 0 0 0 0 0 0 0 0 0
0 0 0 0 0 0 0 0 0 0 0 0 0 0 0 0 0 0 0 0 0 0 0 0 0 0 0 0 0 0 0 0 0 0 0 0 0 0 0 0 0 0 0
0 0 0 0 0 0 0 0 0 0 0 0 0 0 0 0 0 0 0 0 0 0 0 0 0 0 0 0 0 0 -0 -0 -0 0 0 0 0 0 0 0 0 0 0
0 0 0 0 0 0 0 0 0 0 0 0 0 0 0 0 0 0 0 0 0 0 0 0 0 0 0 0 0 0 -0 -0 -0 -0 0 0 0 0 0 0 0 0 0
0 0 0 0 0 0 0 0 0 0 0 0 0 0 0 0 0 0 0 0 0 0 0 0 0 0 0 0 0 0 0 -0 -0 -0 0 0 0 0 0 0 0 0 0
0 0 0 0 0 0 0 0 0 0 0 0 0 0 0 0 0 0 0 0 0 0 0 0 0 0 0 0 0 0 0 -0 -0 -0 0 0 0 0 0 0 0 0 0
0 0 0 0 0 0 0 0 0 0 0 0 0 0 0 0 0 0 0 0 0 0 0 0 0 0 0 0 0 0 0 -0 0 0 0 0 0 0 0 0 0 0 0
0 0 0 0 -0 0 0 0 0 0 0 0 0 0 0 0 0 0 0 0 0 0 0 0 0 0 0 0 0 0 0 -0 0 0 0 0 0 0 0 0 0 0 0
-0 0 -0 -0 -0 0 0 0 0 0 0 0 0 0 0 0 0 0 0 0 0 0 0 0 0 0 0 0 0 -0 -0 -0 0 0 0 0 0 0 -0 -0 -0 0 0
-0 -0 -0 -0 0 0 0 0 0 0 0 0 0 0 0 0 0 0 0 0 0 0 0 0 0 0 -0 0 0 -0 0 0 0 0 -0 -0 -0 -0 -0 0 0 0 0
-0 -0 -0 -0 0 0 0 0 0 0 0 0 0 0 0 0 0 0 0 0 0 0 0 0 0 -0 -0 0 0 -0 -0 0 0 0 -0 -0 -0 0 0 0 0 0 0
-0 -0 -0 -0 0 0 0 0 0 0 0 0 0 0 0 0 0 0 0 0 0 0 0 0 -0 0 0 0 0 0 0 -0 0 0 -0 0 0 0 0 0 0 0 0
-0 -0 0 0 0 0 0 0 0 0 0 0 0 0 0 0 0 0 0 0 0 0 0 0 0 0 0 0 0 0 0 -0 -0 -0 0 0 0 0 0 0 0 0 0
-0 -0 -0 -0 0 0 0 0 0 0 0 0 0 0 0 0 0 0 0 0 0 0 0 0 0 0 0 0 -0 0 0 0 0 0 0 0 0 0 0 0 0 0 0
-0 -0 -0 -0 0 0 0 0 0 0 0 0 0 0 0 0 0 0 0 0 0 0 0 0 0 0 0 -0 -0 0 0 0 0 0 0 0 0 0 0 0 0 0 0
Wind_Speed_500mb
52 52 43 40 41 40 38 36 35 38 39 39 36 32 32 32 28 27 36 42 46 54 57 61 64 65 68 74 79 85 87 89 85 87 88 87 84 82 82 82 78 76 76
51 51 47 44 49 50 48 47 42 41 45 43 41 37 34 34 34 31 30 33 39 43 46 52 59 62 63 71 74 80 91 95 90 91 84 80 79 90 94 90 88 86 84
54 55 51 52 50 52 56 54 49 41 35 33 31 27 26 29 33 37 42 43 45 49 50 49 48 48 49 60 73 76 80 87 92 94 78 37 56 80 80 87 90 94 90
52 63 60 60 61 61 60 50 42 35 28 22 20 21 24 30 35 37 39 42 46 51 52 55 57 55 56 55 60 61 66 74 88 87 90 91 92 84 68 71 69 75 79
43 51 70 71 67 65 60 47 36 29 22 16 18 21 26 28 32 38 44 43 41 44 43 45 51 56 59 59 58 58 60 65 71 83 91 93 88 99 100 83 86 85 73
36 22 56 65 59 52 42 32 25 20 19 20 25 32 30 32 37 40 47 45 44 49 53 57 61 63 60 62 57 56 60 61 67 71 80 92 79 79 87 84 93 82 77
8 22 61 51 41 31 24 20 24 27 27 29 39 40 37 40 44 45 42 48 53 53 54 59 63 64 59 52 54 57 56 53 60 70 69 77 90 80 75 54 35 23 50
39 38 35 27 23 25 27 31 35 34 38 42 44 44 46 51 48 44 44 48 53 56 58 59 61 54 54 54 50 52 57 60 61 66 66 70 71 78 48 44 10 38 45
20 26 27 28 29 32 34 39 44 45 47 51 51 52 54 50 52 48 49 50 55 58 59 57 59 58 55 55 56 53 54 57 62 65 72 75 74 75 76 89 89 71 42
11 8 5 16 26 36 44 47 47 51 53 49 47 48 51 54 54 53 54 58 60 60 58 60 57 58 65 63 62 60 59 59 59 62 68 75 76 79 80 74 75 88 88
13 8 4 2 3 7 15 21 29 35 42 44 45 48 50 50 52 54 55 58 59 58 64 63 61 63 65 67 67 68 66 64 57 59 67 75 82 80 85 78 81 97 86
26 22 18 15 15 18 19 21 21 20 21 25 28 29 33 43 50 54 55 57 59 59 62 62 67 67 66 63 64 67 68 69 72 81 83 80 83 90 90 97 100 102 99
18 23 24 28 33 37 42 46 48 52 55 57 59 59 57 56 55 54 53 56 64 68 67 66 64 65 61 62 65 66 70 73 75 78 75 84 82 96 94 95 99 104 99
24 31 38 46 54 61 66 69 71 72 76 80 84 88 89 91 93 92 89 83 75 68 67 71 70 63 60 58 65 62 71 73 78 93 96 93 83 93 92 91 86 86 89
34 45 55 63 69 71 72 75 79 84 89 95 100 104 107 110 113 115 115 111 107 101 90 76 63 64 58 61 62 60 68 77 85 96 80 85 83 83 76 67 78 74 60
49 59 67 71 72 75 81 91 102 108 109 108 105 101 94 88 86 84 86 97 101 98 99 98 83 65 56 56 58 63 69 79 90 91 86 64 68 57 57 52 58 47 46
63 68 67 69 78 90 98 103 101 96 92 90 90 86 83 79 80 79 77 73 66 66 71 75 79 80 57 50 54 55 66 72 87 71 56 49 57 56 51 40 49 40 32
62 64 72 86 94 96 90 84 80 80 77 77 75 73 69 68 63 61 54 58 72 71 64 70 66 74 62 49 52 53 64 62 62 24 45 49 53 60 55 59 63 39 37
60 72 81 91 90 82 73 73 76 73 70 70 68 66 62 61 60 66 69 57 57 65 55 55 60 56 70 58 48 54 52 48 24 20 20 31 33 40 47 40 42 46 40
71 75 89 78 62 67 66 67 68 66 67 65 64 62 61 58 59 63 70 70 64 62 68 58 50 64 58 54 46 47 36 24 7 28 37 30 30 37 42 52 54 46 36
65 83 61 63 66 62 61 64 64 64 60 58 58 59 58 56 57 59 51 49 48 49 52 51 57 53 64 51 46 37 39 35 21 15 31 41 44 48 49 46 36 32 23
76 69 66 65 62 58 56 61 62 59 55 54 55 57 57 52 52 47 48 48 46 53 41 43 43 54 50 52 47 40 46 56 55 35 25 50 51 46 45 35 25 17 11
64 63 62 66 60 56 52 57 56 55 53 53 51 52 52 49 38 41 42 39 42 36 42 38 44 46 32 50 47 32 35 62 52 34 51 50 43 43 39 27 16 13 10
63 60 60 59 60 53 47 45 49 47 46 46 47 49 49 43 40 36 32 34 34 38 34 30 42 30 23 36 36 34 39 60 51 47 54 50 45 38 31 21 10 15 5
56 54 53 54 52 47 42 40 41 41 42 44 42 39 45 39 40 36 33 33 35 32 34 31 33 24 27 30 28 43 47 43 48 51 53 49 43 40 32 16 5 7 5
51 50 48 46 45 40 34 36 38 37 41 44 41 40 38 38 33 32 34 27 23 22 21 32 24 22 18 22 35 31 43 46 58 52 47 47 43 35 22 6 3 6 6
Wind_Direction_500mb
247 220 214 217 208 198 201 200 199 196 202 207 212 221 235 247 252 251 258 266 273 278 278 280 284 286 286 279 273 274 277 275 273 270 270 269 268 266 263 258 255 252 252
230 227 228 223 216 219 218 219 218 210 200 203 207 217 227 239 254 263 265 271 279 282 281 280 280 281 283 283 284 282 274 273 273 269 264 267 270 265 260 258 257 256 258
234 234 229 221 218 219 214 210 209 204 197 206 217 232 252 268 280 288 293 294 289 284 288 290 291 292 294 290 286 282 282 280 275 271 257 256 252 266 264 262 261 261 259
257 253 240 217 218 210 199 200 202 204 206 213 230 252 271 288 302 310 313 308 301 293 292 289 292 297 296 292 289 292 291 286 280 276 266 261 257 261 265 261 265 272 268
285 262 238 222 205 196 198 200 203 213 229 249 270 283 293 305 311 314 312 310 300 298 300 311 310 303 299 299 297 289 290 289 288 280 280 269 260 255 255 262 264 261 265
291 279 219 188 179 180 185 196 214 230 251 267 283 289 289 299 298 301 307 301 295 301 302 309 310 311 304 295 291 298 287 286 282 280 277 271 260 265 259 257 265 265 267
282 188 168 167 168 172 185 214 237 251 265 277 289 282 285 293 299 304 299 289 288 290 293 299 309 309 311 306 295 288 292 286 287 282 275 272 270 276 266 266 254 296 294
119 130 146 168 199 224 235 242 251 258 266 280 283 277 275 284 288 292 287 281 281 286 294 302 308 312 310 311 304 294 290 292 282 281 280 276 269 264 252 220 277 291 301
145 166 187 208 220 225 236 244 257 273 278 280 270 264 270 272 285 284 272 271 278 285 292 298 306 311 314 312 305 308 301 291 287 283 278 277 270 257 253 263 247 235 258
37 13 292 258 256 256 257 262 269 260 260 256 257 258 263 276 278 274 272 278 282 286 289 293 298 303 307 318 315 306 304 308 293 285 280 272 267 262 258 257 243 234 261
66 56 67 49 292 278 278 277 272 267 263 262 262 261 258 257 254 254 264 277 283 283 286 287 292 296 300 305 312 313 306 306 304 296 288 279 269 260 251 248 250 249 246
68 63 55 37 18 5 355 345 335 322 308 294 289 289 281 272 268 265 262 259 263 272 278 281 288 290 293 299 302 307 304 303 295 301 292 279 272 259 255 255 253 251 241
25 9 354 346 339 331 324 318 315 311 309 305 300 295 289 284 280 277 274 273 269 263 262 269 275 284 287 289 292 299 302 301 297 299 288 280 272 261 254 250 249 250 251
2 348 339 333 328 324 322 317 312 309 305 302 301 298 293 291 288 284 280 276 275 273 268 264 265 273 283 284 287 296 303 304 304 300 286 281 266 257 253 252 252 247 241
338 334 330 327 324 322 319 317 313 310 308 304 301 298 296 293 291 289 287 283 279 275 270 269 270 263 270 281 287 296 302 304 297 305 291 273 260 255 251 248 239 232 227
332 329 325 323 322 319 316 312 309 308 306 303 301 300 296 292 289 287 285 285 285 279 272 265 265 270 262 278 287 296 301 302 296 295 286 263 253 241 231 228 237 211 199
325 323 321 318 315 312 311 310 309 307 305 304 303 301 299 297 294 289 287 286 283 281 274 270 262 261 258 270 283 292 293 297 302 294 272 250 230 210 204 230 195 182 200
318 315 313 313 313 312 311 310 311 310 308 306 304 304 301 300 301 294 284 284 281 283 272 264 265 257 251 264 276 288 294 296 306 284 239 230 211 208 213 196 181 191 176
310 310 313 314 312 312 314 313 312 313 309 307 306 305 303 295 289 288 285 282 287 271 282 268 260 257 249 259 268 282 291 305 275 1 134 155 168 173 183 198 150 161 162
317 313 315 314 311 314 318 314 313 314 315 316 313 309 306 301 289 284 283 283 274 273 271 272 259 258 245 251 253 268 288 281 349 49 91 112 128 135 149 153 162 153 146
315 317 317 311 320 323 322 316 317 316 321 318 316 313 308 303 297 291 289 287 276 268 273 270 263 257 244 246 249 256 256 223 235 105 138 146 150 142 144 144 137 134 132
314 320 320 322 326 328 325 321 319 323 318 316 317 320 315 306 299 292 285 287 274 272 274 275 264 250 246 238 239 260 237 237 236 252 198 157 152 151 149 141 124 104 85
322 325 327 324 327 332 330 323 325 326 320 318 317 320 315 306 299 298 285 278 286 271 275 272 274 260 230 225 228 249 238 222 219 191 166 162 155 152 149 140 97 49 32
328 329 324 327 329 335 335 335 334 330 326 320 320 320 313 317 312 302 286 278 276 269 268 272 249 276 232 224 229 234 206 204 204 199 175 168 162 159 156 151 63 18 60
327 327 327 327 332 339 348 353 349 344 338 334 331 325 327 319 317 310 309 284 285 263 267 260 257 273 228 216 184 189 186 204 195 180 171 171 175 168 166 165 6 16 58
328 330 331 333 339 345 350 353 351 346 340 340 340 337 330 314 330 319 314 302 276 250 244 250 254 239 210 209 186 182 175 166 167 170 171 168 169 168 174 203 333 82 43
Wind_Speed_850mb
52 52 43 40 41 40 38 36 35 38 39 39 36 32 32 32 28 27 36 42 46 54 57 61 64 65 68 74 79 85 87 89 85 87 88 87 84 82 82 82 78 76 76
51 51 47 44 49 50 48 47 42 41 45 43 41 37 34 34 34 31 30 33 39 43 46 52 59 62 63 71 74 80 91 95 90 91 84 80 79 90 94 90 88 86 84
54 55 51 52 50 52 56 54 49 41 35 33 31 27 26 29 33 37 42 43 45 49 50 49 48 48 49 60 73 76 80 87 92 94 78 37 56 80 80 87 90 94 90
52 63 60 60 61 61 60 50 42 35 28 22 20 21 24 30 35 37 39 42 46 51 52 55 57 55 56 55 60 61 66 74 88 87 90 91 92 84 68 71 69 75 79
43 51 70 71 67 65 60 47 36 29 22 16 18 21 26 28 32 38 44 43 41 44 43 45 51 56 59 59 58 58 60 65 71 83 91 93 88 99 100 83 86 85 73
36 22 56 65 59 52 42 32 25 20 19 20 25 32 30 32 37 40 47 45 44 49 53 57 61 63 60 62 57 56 60 61 67 71 80 92 79 79 87 84 93 82 77
8 22 61 51 41 31 24 20 24 27 27 29 39 40 37 40 44 45 42 48 53 53 54 59 63 64 59 52 54 57 56 53 60 70 69 77 90 80 75 54 35 23 50
39 38 35 27 23 25 27 31 35 34 38 42 44 44 46 51 48 44 44 48 53 56 58 59 61 54 54 54 50 52 57 60 61 66 66 70 71 78 48 44 10 38 45
20 26 27 28 29 32 34 39 44 45 47 51 51 52 54 50 52 48 49 50 55 58 59 57 59 58 55 55 56 53 54 57 62 65 72 75 74 75 76 89 89 71 42
11 8 5 16 26 36 44 47 47 51 53 49 47 48 51 54 54 53 54 58 60 60 58 60 57 58 65 63 62 60 59 59 59 62 68 75 76 79 80 74 75 88 88
13 8 4 2 3 7 15 21 29 35 42 44 45 48 50 50 52 54 55 58 59 58 64 63 61 63 65 67 67 68 66 64 57 59 67 75 82 80 85 78 81 97 86
26 22 18 15 15 18 19 21 21 20 21 25 28 29 33 43 50 54 55 57 59 59 62 62 67 67 66 63 64 67 68 69 72 81 83 80 83 90 90 97 100 102 99
18 23 24 28 33 37 42 46 48 52 55 57 59 59 57 56 55 54 53 56 64 68 67 66 64 65 61 62 65 66 70 73 75 78 75 84 82 96 94 95 99 104 99
24 31 38 46 54 61 66 69 71 72 76 80 84 88 89 91 93 92 89 83 75 68 67 71 70 63 60 58 65 62 71 73 78 93 96 93 83 93 92 91 86 86 89
34 45 55 63 69 71 72 75 79 84 89 95 100 104 107 110 113 115 115 111 107 101 90 76 63 64 58 61 62 60 68 77 85 96 80 85 83 83 76 67 78 74 60
49 59 67 71 72 75 81 91 102 108 109 108 105 101 94 88 86 84 86 97 101 98 99 98 83 65 56 56 58 63 69 79 90 91 86 64 68 57 57 52 58 47 46
63 68 67 69 78 90 98 103 101 96 92 90 90 86 83 79 80 79 77 73 66 66 71 75 79 80 57 50 54 55 66 72 87 71 56 49 57 56 51 40 49 40 32
62 64 72 86 94 96 90 84 80 80 77 77 75 73 69 68 63 61 54 58 72 71 64 70 66 74 62 49 52 53 64 62 62 24 45 49 53 60 55 59 63 39 37
60 72 81 91 90 82 73 73 76 73 70 70 68 66 62 61 60 66 69 57 57 65 55 55 60 56 70 58 48 54 52 48 24 20 20 31 33 40 47 40 42 46 40
71 75 89 78 62 67 66 67 68 66 67 65 64 62 61 58 59 63 70 70 64 62 68 58 50 64 58 54 46 47 36 24 7 28 37 30 30 37 42 52 54 46 36
65 83 61 63 66 62 61 64 64 64 60 58 58 59 58 56 57 59 51 49 48 49 52 51 57 53 64 51 46 37 39 35 21 15 31 41 44 48 49 46 36 32 23
76 69 66 65 62 58 56 61 62 59 55 54 55 57 57 52 52 47 48 48 46 53 41 43 43 54 50 52 47 40 46 56 55 35 25 50 51 46 45 35 25 17 11
64 63 62 66 60 56 52 57 56 55 53 53 51 52 52 49 38 41 42 39 42 36 42 38 44 46 32 50 47 32 35 62 52 34 51 50 43 43 39 27 16 13 10
63 60 60 59 60 53 47 45 49 47 46 46 47 49 49 43 40 36 32 34 34 38 34 30 42 30 23 36 36 34 39 60 51 47 54 50 45 38 31 21 10 15 5
56 54 53 54 52 47 42 40 41 41 42 44 42 39 45 39 40 36 33 33 35 32 34 31 33 24 27 30 28 43 47 43 48 51 53 49 43 40 32 16 5 7 5
51 50 48 46 45 40 34 36 38 37 41 44 41 40 38 38 33 32 34 27 23 22 21 32 24 22 18 22 35 31 43 46 58 52 47 47 43 35 22 6 3 6 6
Wind_Direction_850mb
247 220 214 217 208 198 201 200 199 196 202 207 212 221 235 247 252 251 258 266 273 278 278 280 284 286 286 279 273 274 277 275 273 270 270 269 268 266 263 258 255 252 252
230 227 228 223 216 219 218 219 218 210 200 203 207 217 227 239 254 263 265 271 279 282 281 280 280 281 283 283 284 282 274 273 273 269 264 267 270 265 260 258 257 256 258
234 234 229 221 218 219 214 210 209 204 197 206 217 232 252 268 280 288 293 294 289 284 288 290 291 292 294 290 286 282 282 280 275 271 257 256 252 266 264 262 261 261 259
257 253 240 217 218 210 199 200 202 204 206 213 230 252 271 288 302 310 313 308 301 293 292 289 292 297 296 292 289 292 291 286 280 276 266 261 257 261 265 261 265 272 268
285 262 238 222 205 196 198 200 203 213 229 249 270 283 293 305 311 314 312 310 300 298 300 311 310 303 299 299 297 289 290 289 288 280 280 269 260 255 255 262 264 261 265
291 279 219 188 179 180 185 196 214 230 251 267 283 289 289 299 298 301 307 301 295 301 302 309 310 311 304 295 291 298 287 286 282 280 277 271 260 265 259 257 265 265 267
282 188 168 167 168 172 185 214 237 251 265 277 289 282 285 293 299 304 299 289 288 290 293 299 309 309 311 306 295 288 292 286 287 282 275 272 270 276 266 266 254 296 294
119 130 146 168 199 224 235 242 251 258 266 280 283 277 275 284 288 292 287 281 281 286 294 302 308 312 310 311 304 294 290 292 282 281 280 276 269 264 252 220 277 291 301
145 166 187 208 220 225 236 244 257 273 278 280 270 264 270 272 285 284 272 271 278 285 292 298 306 311 314 312 305 308 301 291 287 283 278 277 270 257 253 263 247 235 258
37 13 292 258 256 256 257 262 269 260 260 256 257 258 263 276 278 274 272 278 282 286 289 293 298 303 307 318 315 306 304 308 293 285 280 272 267 262 258 257 243 234 261
66 56 67 49 292 278 278 277 272 267 263 262 262 261 258 257 254 254 264 277 283 283 286 287 292 296 300 305 312 313 306 306 304 296 288 279 269 260 251 248 250 249 246
68 63 55 37 18 5 355 345 335 322 308 294 289 289 281 272 268 265 262 259 263 272 278 281 288 290 293 299 302 307 304 303 295 301 292 279 272 259 255 255 253 251 241
25 9 354 346 339 331 324 318 315 311 309 305 300 295 289 284 280 277 274 273 269 263 262 269 275 284 287 289 292 299 302 301 297 299 288 280 272 261 254 250 249 250 251
2 348 339 333 328 324 322 317 312 309 305 302 301 298 293 291 288 284 280 276 275 273 268 264 265 273 283 284 287 296 303 304 304 300 286 281 266 257 253 252 252 247 241
338 334 330 327 324 322 319 317 313 310 308 304 301 298 296 293 291 289 287 283 279 275 270 269 270 263 270 281 287 296 302 304 297 305 291 273 260 255 251 248 239 232 227
332 329 325 323 322 319 316 312 309 308 306 303 301 300 296 292 289 287 285 285 285 279 272 265 265 270 262 278 287 296 301 302 296 295 286 263 253 241 231 228 237 211 199
325 323 321 318 315 312 311 310 309 307 305 304 303 301 299 297 294 289 287 286 283 281 274 270 262 261 258 270 283 292 293 297 302 294 272 250 230 210 204 230 195 182 200
318 315 313 313 313 312 311 310 311 310 308 306 304 304 301 300 301 294 284 284 281 283 272 264 265 257 251 264 276 288 294 296 306 284 239 230 211 208 213 196 181 191 176
310 310 313 314 312 312 314 313 312 313 309 307 306 305 303 295 289 288 285 282 287 271 282 268 260 257 249 259 268 282 291 305 275 1 134 155 168 173 183 198 150 161 162
317 313 315 314 311 314 318 314 313 314 315 316 313 309 306 301 289 284 283 283 274 273 271 272 259 258 245 251 253 268 288 281 349 49 91 112 128 135 149 153 162 153 146
315 317 317 311 320 323 322 316 317 316 321 318 316 313 308 303 297 291 289 287 276 268 273 270 263 257 244 246 249 256 256 223 235 105 138 146 150 142 144 144 137 134 132
314 320 320 322 326 328 325 321 319 323 318 316 317 320 315 306 299 292 285 287 274 272 274 275 264 250 246 238 239 260 237 237 236 252 198 157 152 151 149 141 124 104 85
322 325 327 324 327 332 330 323 325 326 320 318 317 320 315 306 299 298 285 278 286 271 275 272 274 260 230 225 228 249 238 222 219 191 166 162 155 152 149 140 97 49 32
328 329 324 327 329 335 335 335 334 330 326 320 320 320 313 317 312 302 286 278 276 269 268 272 249 276 232 224 229 234 206 204 204 199 175 168 162 159 156 151 63 18 60
327 327 327 327 332 339 348 353 349 344 338 334 331 325 327 319 317 310 309 284 285 263 267 260 257 273 228 216 184 189 186 204 195 180 171 171 175 168 166 165 6 16 58
328 330 331 333 339 345 350 353 351 346 340 340 340 337 330 314 330 319 314 302 276 250 244 250 254 239 210 209 186 182 175 166 167 170 171 168 169 168 174 203 333 82 43